This is the latest recevied weather packets stored in our database for station/object KB2EAR-13. If no packets are shown the sender has not sent any weather packets the latest 1 day(s).
| Time | Temp. | Humidity | Pressure | Rain* | Wind** | Luminosity | Snow |
|---|---|---|---|---|---|---|---|
| 1778006117 | 27.78° C | 38% | 1010.1 hPa | 0 mm | 2.68 m/s, 270° | - | - |
| 1778005817 | 27.78° C | 40% | 1010.1 hPa | 0 mm | 1.34 m/s, 270° | - | - |
| 1778005517 | 27.78° C | 40% | 1010.2 hPa | 0 mm | 2.24 m/s, 270° | - | - |
| 1778005386 | 27.78° C | 39% | 1010.2 hPa | 0 mm | 1.79 m/s, 248° | - | - |
| 1778005217 | 27.78° C | 39% | 1010.2 hPa | 0 mm | 1.79 m/s, 248° | - | - |
| 1778004917 | 27.78° C | 43% | 1010.2 hPa | 0 mm | 1.79 m/s, 248° | - | - |
| 1778004617 | 27.78° C | 40% | 1010.2 hPa | 0 mm | 2.24 m/s, 270° | - | - |
| 1778004317 | 27.78° C | 44% | 1010.3 hPa | 0 mm | 1.79 m/s, 270° | - | - |
| 1778004021 | 27.78° C | 42% | 1010.3 hPa | 0 mm | 2.24 m/s, 270° | - | - |
| 1778003717 | 27.78° C | 42% | 1010.3 hPa | 0 mm | 1.34 m/s, 248° | - | - |
| 1778003417 | 27.78° C | 44% | 1010.4 hPa | 0 mm | 1.34 m/s, 270° | - | - |
| 1778003196 | 27.22° C | 43% | 1010.4 hPa | 0 mm | 1.34 m/s, 248° | - | - |
| 1778003117 | 27.22° C | 43% | 1010.4 hPa | 0 mm | 1.34 m/s, 248° | - | - |
| 1778002817 | 27.22° C | 43% | 1010.7 hPa | 0 mm | 1.79 m/s, 293° | - | - |
| 1778002517 | 27.22° C | 42% | 1010.5 hPa | 0 mm | 2.24 m/s, 270° | - | - |
| 1778002217 | 27.22° C | 43% | 1010.6 hPa | 0 mm | 2.24 m/s, 270° | - | - |
| 1778001917 | 27.22° C | 45% | 1010.6 hPa | 0 mm | 0.45 m/s, 315° | - | - |
| 1778001773 | 27.22° C | 44% | 1010.7 hPa | 0 mm | 1.34 m/s, 248° | - | - |
| 1778001617 | 27.22° C | 44% | 1010.7 hPa | 0 mm | 1.34 m/s, 248° | - | - |
| 1778001317 | 26.67° C | 46% | 1010.7 hPa | 0 mm | 0.89 m/s, 270° | - | - |
| 1778001017 | 26.67° C | 44% | 1010.8 hPa | 0 mm | 1.34 m/s, 248° | - | - |
| 1778000717 | 26.67° C | 45% | 1010.7 hPa | 0 mm | 1.34 m/s, 248° | - | - |
| 1778000417 | 26.67° C | 45% | 1010.8 hPa | 0 mm | 1.79 m/s, 270° | - | - |
| 1778000117 | 26.67° C | 45% | 1010.7 hPa | 0 mm | 1.34 m/s, 270° | - | - |
| 1777999817 | 26.67° C | 46% | 1010.9 hPa | 0 mm | 1.34 m/s, 248° | - | - |
* Rain latest hour (hover to see other rain measurements)
** Current wind speed in m/s (hover to see current wind gust speed)